CanjetBLOCKVirtuelBLOCKQcBLOCKBLOCKBLOCKBLOCKBLOCKBLOCKBLOCKBLOCKBLOCKBLOCKBLOCKvolsBLOCKavecBLOCKFS-kACARS2019-08-19BLOCK02colon05am

volsBLOCKBLOCKBLOCKBLOCKBLOCKpilotesBLOCKBLOCKBLOCKBLOCKBLOCKBLOCKBLOCKBLOCKtypeBLOCKBLOCKdepBLOCKBLOCKarrBLOCKBLOCKBLOCKBLOCKBLOCKaltBLOCKBLOCKBLOCKBLOCKBLOCKgsBLOCKBLOCKBLOCKBLOCKstatut

CJA414LucBLOCKBB738CYQB-CYUY0ft0ktsarrived
CJA9999StephaneBLOCKGA388LLBG-CYUL33993ft449kts07colon32am









BLOCKAppuyerBLOCKsurBLOCKF5BLOCKpourBLOCKactualiserBLOCKBLOCKBLOCKMiseBLOCKaBLOCKjourcolonBLOCK02colon05colon32amCanjetBLOCKvirtuelBLOCKQC

Boeing 737 MAX

Publié par Yvan Roy le 2019-08-16

 


 

                                                      

 


  


Microsoft flight sim 2020

Publié par Yvan Roy le 2019-06-25

 

Microsoft flight simulator 2020 encore plus fort sera disponible pour votre PC au début 2020 .

 

https://fsi.microsoftstudios.com/
 

                                                   

 





Bienvenue chez Canjetvirtuel-Q

Publié par Michel Ayotte le 2013-06-14

 

Canjetvirtuel-Québec est une compagnie aérienne virtuelle qui a été fondée par 2 passionnés de la simulation de vol.

Elle est opérée avec les Boeing 737. Exceptionnelement et pour votre plaisir les Boeing 747,757,767 et 777 sont autorisés pour des vols de plus de 1,5 heure.

Ces appareils pouvant faire des vols cargos ou des vols passagers,que ce soit au Canada, Europe, États-Unis, Mexique et Caraïbes.

Vous trouverez votre place comme pilote chez nous!



Avis

Aux fins de la simulation de vol seulement. CanjetVirtuel Québec n'est en aucun cas affilié avec n'importe quelle compagnie aérienne du monde réel. CanjetVirtuel Québec est un site à but non lucratif gérée par des amateurs de simulation de vol. Toutes les images sont la propriété exclusive de leurs propriétaires respectifs.
| propulsé par phpVMS, © 2013-2019.

Notice

For flight simulation purposes only. CanjetVirtuel Quebec is in no way affiliated with any real world airline. CanjetVirtuel Quebec is a non-profit site run by flight simulation enthusiasts. All images are the sole property of their respective owners.
| powered by phpVMS, © 2013-2019.

Affiliations

Vatsim

Les statistiques du site

Nombre de pilotes: 14
Total des vols effectués: 4673
Trajets disponibles: 543
Passagers transportés: 957394
Total des heures de vol: 13943
Distance totale (NM): 5789459
Pilotes en ligne: 1

Nouvelles

Boeing 737 MAX
08/16/2019
Microsoft flight sim 2020
06/25/2019
Bienvenue chez Canjetvirtuel-Q
06/14/2013

METAR

CYHZ 190500Z 18005KT 15SM BKN078 18/18 A3003 RMK AC7 SLP172 DENSITY ALT 900FT

CYQB 190500Z 04003KT 15SM SKC 18/18 A2990 RMK SLP126 DENSITY ALT 800FT

CYUL 190500Z 15006KT 15SM FEW250 23/20 A2983 RMK CI2 SLP101 DENSITY ALT 1200FT

CYYZ 190545Z 17012KT 15SM FEW045 OVC140 21/20 A2982 RMK CU2AC6 SLP098 DENSITY ALT 1500FT